Flag for U.S.A. Weather past 2 weeks in Leawood, Kansas, U.S.A.

Now
85 °F

Sunny.


Feels Like: 89 °F
Forecast: 71 / 88 °F
Wind: 18 mph from South

Location: Johnson County Executive Airport

Current Time: Sep 2, 2015 at 5:14:28 PM

Latest Report: Sep 2, 2015 at 3:53 PM


Visibility: 10 mi

Pressure: 29.92 "Hg

Humidity: 59%

Dew point: 69 °F

Location of LeawoodLocation

Historic Weather in Leawood — Graph

°F

Leawood temperature yesterday

Maximum temperature yesterday: 86 °F (at 2:53 PM)
Minimum temperature yesterday: 70 °F (at 6:53 AM)
Average temperature yesterday: 77 °F

Past Weeks' High & Low Weather Summary

 TemperatureHumidityPressure
High86 °F (Aug 31, 2:53 PM)100% (Aug 30, 5:53 AM)30.19 "Hg (Aug 30, 5:53 AM)
Low51 °F (Aug 24, 6:53 AM)37% (Aug 24, 1:53 PM)29.63 "Hg (Aug 18, 5:53 PM)
Average71 °F75%29.99 "Hg
* Reported Aug 18 3:53 PM — Sep 2 3:53 PM, Leawood, Weather by CustomWeather, © 2015

Note: Actual official high and low records may vary slightly from our data, if they occured in-between our weather recording intervals... More about our weather records

Advertising

Leawood weather history for previous 24 hours

 ConditionsComfort  
Time TempWeatherWind HumidityBarometerVisibility
3:53 PM
Wed, Sep 2
85 °FSunny.18 mph59%29.92 "Hg10 mi
2:53 PM85 °FSunny.14 mph61%29.94 "Hg10 mi
1:53 PM84 °FSunny.17 mph65%29.97 "Hg10 mi
12:53 PM80 °FSunny.9 mph76%29.98 "Hg10 mi
11:53 AM76 °FLight rain. Broken clouds.7 mph85%30.02 "Hg10 mi
10:53 AM74 °FScattered clouds.5 mph85%30.05 "Hg10 mi
9:53 AM73 °FOvercast.6 mph81%30.05 "Hg10 mi
8:53 AM72 °FOvercast.6 mph84%30.03 "Hg10 mi
7:53 AM71 °FPartly sunny.9 mph84%30.01 "Hg9 mi
6:53 AM70 °FPassing clouds.8 mph87%29.98 "Hg10 mi
5:53 AM69 °FPassing clouds.7 mph90%29.96 "Hg9 mi
4:53 AM69 °FClear.8 mph87%29.96 "Hg9 mi
3:53 AM70 °FClear.6 mph84%29.96 "Hg9 mi
2:53 AM71 °FClear.6 mph81%29.96 "Hg9 mi
1:53 AM70 °FClear.7 mph84%29.97 "Hg9 mi
12:53 AM71 °FClear.6 mph81%29.98 "Hg9 mi
11:53 PM
Tue, Sep 1
71 °FClear.5 mph81%29.99 "Hg9 mi
10:53 PM73 °FClear.7 mph81%30.00 "Hg10 mi
9:53 PM73 °FClear.8 mph84%29.99 "Hg10 mi
8:53 PM76 °FClear.5 mph77%29.98 "Hg10 mi
7:53 PM77 °FSunny.6 mph74%29.97 "Hg10 mi
6:53 PM82 °FSunny.9 mph65%29.96 "Hg10 mi
5:53 PM84 °FSunny.10 mph57%29.96 "Hg10 mi
Weather by CustomWeather, © 2015

See weather overviewHow to use our weather pages